Regional Weather Roundup
Issued by NWS Cleveland, OH

Home | Current Version | Previous Version | Text Only | Print | Product List | Glossary Off
Versions: 1 2 3 4 5 6 7 8 9 10 11 12 13 14 15 16 17 18 19 20 21 22 23 24 25 26 27 28 29 30 31 32 33 34 35 36 37 38 39 40 41 42 43 44 45 46 47 48 49 50

682
ASUS41 KCLE 291100
RWRCLE
OHIO REGIONAL WEATHER ROUNDUP
NATIONAL WEATHER SERVICE WILMINGTON, OH
700 AM EDT MON AUG 29 2016

NOTE: "FAIR" INDICATES FEW OR NO CLOUDS BELOW 12,000 FEET WITH NO
SIGNIFICANT WEATHER AND/OR OBSTRUCTIONS TO VISIBILITY.

OHZ001>008-015>018-024>027-034-035-043-044-291200-
   NORTHWEST OHIO

CITY           SKY/WX    TMP DP  RH WIND       PRES   REMARKS
DEFIANCE       FOG       69  68  96 NE5       30.24R VSB 1/4
FINDLAY        FOG       72  70  93 NE6       30.22R VSB 1/2
TOLEDO EXPRESS CLOUDY    69  69 100 NE5       30.24R
TOLEDO EXEC    CLOUDY    74  71  91 NE7       30.24R
LIMA           FOG       68  68 100 E5        30.23R VSB 1/4
$$

OHZ009>014-019>023-028>033-038-089-291200-
   NORTHEAST OHIO

CITY           SKY/WX    TMP DP  RH WIND       PRES   REMARKS
CLE-HOPKINS    MOCLDY    76  67  73 NE12      30.25R
CLE-LAKEFRONT  FAIR      75  69  81 NE10      30.22R
CUY CO. ARPT   MOCLDY    73  72  94 NE9       30.24
LORAIN-ELYRIA  FAIR      67  66  97 NE6       30.24R
ASHTABULA      FAIR      67  65  93 CALM      30.26R
AKRON-CANTON   FOG       70  68  93 N12       30.23R VSB 3/4
WOOSTER        NOT AVBL
MANSFIELD      MOCLDY    69  68  96 E3        30.25R FOG
YOUNGSTOWN     FOG       68  67  96 NE9       30.23R VSB 1/2
$$

OHZ042-051>053-060>062-070>072-077>081-291200-
  SOUTHWEST OHIO

CITY           SKY/WX    TMP DP  RH WIND       PRES   REMARKS
CINC-COVINGTON FAIR      69  68  96 N5        30.20R FOG
CINC-LUNKEN    FAIR      67  67 100 CALM      30.20S
HAMILTON       FOG       66  65  96 CALM      30.21R VSB 1/4
DAYTON         NOT AVBL
WRIGHT-PAT AFB NOT AVBL
DAYTON GENERAL FAIR      68  65  90 N3        30.21R
WILMINGTON     FAIR      67  66  97 N3        30.21R
$$

OHZ036-037-039>041-045>050-054>059-063>069-073>076-082>088-291200-
  CENTRAL AND SOUTHEAST OHIO

CITY           SKY/WX    TMP DP  RH WIND       PRES   REMARKS
COLUMBUS       MOCLDY    72  68  87 N3        30.20R
OSU AIRPORT    FAIR      73  70  90 N7        30.21R
BOLTON FIELD   NOT AVBL
RICKENBACK AFB NOT AVBL
NEWARK         FAIR      71  68  90 CALM      30.21R
MARION         FAIR      67  65  93 NE5       30.23R FOG
LANCASTER      FAIR      71  68  90 CALM      30.21R
ZANESVILLE     FAIR      69  65  86 CALM      30.21R
NEW PHILLY     FAIR      67  63  87 CALM      30.22R
$$




USA.gov is the U.S. government's official web portal to all federal, state and local government web resources and services.